KC7NGC-B Weather Reports


Display with metric or nautical units.
time (UTC)temp
F
wind
direction
speed
MPH
gust
MPH
rain 1hr
in
rain 24hr
in
rain mn
in
humidity
%
barometer
mb
20260905102621 56 216 2.0 2.0 0.00 0.00 0.00 1 1018.0
20260905101617 56 303 3.0 4.0 0.00 0.00 0.00 1 1017.8
20260905100633 56 325 3.0 4.0 0.00 0.00 0.00 1 1017.7
20260905095630 56 327 4.0 5.0 0.00 0.00 0.00 1 1017.9
20260905094626 56 338 4.0 5.0 0.00 0.00 0.00 1 1017.8
20260905093622 56 330 3.0 4.0 0.00 0.00 0.00 1 1017.8
20260905092618 57 328 4.0 5.0 0.00 0.00 0.00 1 1017.8
20260905091654 57 342 5.0 7.0 0.00 0.00 0.00 1 1017.8
20260905090631 57 346 3.0 4.0 0.00 0.00 0.00 1 1017.6
20260905085626 57 333 3.0 4.0 0.00 0.00 0.00 1 1017.7
20260905084622 57 0 1.0 2.0 0.00 0.00 0.00 1 1017.4
20260905083639 57 0.0 0.0 0.00 0.00 0.00 1 1017.6
20260905082715 57 301 2.0 3.0 0.00 0.00 0.00 1 1017.4
20260905081651 57 331 3.0 5.0 0.00 0.00 0.00 1 1017.2
20260905080647 58 346 3.0 4.0 0.00 0.00 0.00 1 1017.2
20260905075623 57 332 5.0 7.0 0.00 0.00 0.00 1 1017.2
20260905074619 57 309 3.0 4.0 0.00 0.00 0.00 1 1017.2
20260905073655 56 344 2.0 3.0 0.00 0.00 0.00 1 1016.9
20260905072631 56 345 4.0 6.0 0.00 0.00 0.00 1 1017.0
20260905071628 57 341 3.0 4.0 0.00 0.00 0.00 1 1016.9
20260905070624 57 327 5.0 6.0 0.00 0.00 0.00 1 1017.1
20260905065620 57 343 5.0 6.0 0.00 0.00 0.00 1 1017.0
20260905064718 57 326 4.0 5.0 0.00 0.00 0.00 1 1016.8
20260905063633 57 343 5.0 6.0 0.00 0.00 0.00 1 1016.4
20260905062629 57 329 6.0 7.0 0.00 0.00 0.00 1 1016.6
20260905061625 57 332 7.0 9.0 0.00 0.00 0.00 1 1016.4
20260905060621 57 328 4.0 7.0 0.00 0.00 0.00 1 1016.7
20260905055617 57 310 3.0 4.0 0.00 0.00 0.00 1 1016.4
20260905054634 57 322 4.0 5.0 0.00 0.00 0.00 1 1016.3
20260905053630 58 336 4.0 6.0 0.00 0.00 0.00 1 1016.5
20260905052646 59 331 4.0 6.0 0.00 0.00 0.00 1 1016.3
20260905051642 59 338 5.0 5.0 0.00 0.00 0.00 1 1016.4
20260905050618 59 329 4.0 5.0 0.00 0.00 0.00 1 1016.5
20260905045634 59 308 4.0 5.0 0.00 0.00 0.00 1 1016.5
20260905044631 60 338 9.0 10.0 0.00 0.00 0.00 1 1016.3
20260905043626 60 336 6.0 8.0 0.00 0.00 0.00 1 1016.1
20260905042622 61 339 5.0 6.0 0.00 0.00 0.00 1 1016.1
20260905041618 61 352 5.0 6.0 0.00 0.00 0.00 1 1016.2
20260905040635 62 356 4.0 4.0 0.00 0.00 0.00 1 1016.3
20260905035631 62 329 6.0 7.0 0.00 0.00 0.00 1 1016.2
20260905034627 64 339 6.0 9.0 0.00 0.00 0.00 1 1016.2
20260905033623 66 336 3.0 4.0 0.00 0.00 0.00 1 1016.0
20260905032619 66 315 2.0 3.0 0.00 0.00 0.00 1 1016.0
20260905031636 67 296 3.0 4.0 0.00 0.00 0.00 1 1015.9
20260905030631 66 294 3.0 3.0 0.00 0.00 0.00 1 1015.9
20260905025628 67 328 2.0 2.0 0.00 0.00 0.00 1 1015.6
20260905024644 66 324 2.0 3.0 0.00 0.00 0.00 1 1015.8
20260905023620 66 291 1.0 2.0 0.00 0.00 0.00 1 1015.4
20260905022636 67 292 1.0 2.0 0.00 0.00 0.00 1 1015.6
20260905021632 68 350 2.0 2.0 0.00 0.00 0.00 1 1015.7
20260905020628 69 0 1.0 2.0 0.00 0.00 0.00 1 1015.6
20260905015624 69 34 2.0 3.0 0.00 0.00 0.00 1 1015.6
20260905014621 70 39 2.0 4.0 0.00 0.00 0.00 1 1015.5
20260905013617 71 66 3.0 4.0 0.00 0.00 0.00 1 1015.4
20260905012633 71 57 1.0 2.0 0.00 0.00 0.00 1 1015.3
20260905011629 71 23 2.0 3.0 0.00 0.00 0.00 1 1015.3
20260905010625 71 51 4.0 5.0 0.00 0.00 0.00 1 1015.2
20260905005621 71 48 4.0 5.0 0.00 0.00 0.00 1 1015.2
20260905004617 71 50 5.0 6.0 0.00 0.00 0.00 1 1015.2
20260905003634 72 26 4.0 5.0 0.00 0.00 0.00 1 1015.2
20260905002630 71 49 0.0 2.0 0.00 0.00 0.00 1 1015.1
20260905001626 71 42 3.0 5.0 0.00 0.00 0.00 1 1015.0
20260905000622 71 64 2.0 4.0 0.00 0.00 0.00 1 1015.1
20260904235618 72 86 1.0 3.0 0.00 0.00 0.00 1 1015.1
20260904234634 73 125 2.0 6.0 0.00 0.00 0.00 1 1015.1
20260904233631 72 90 4.0 5.0 0.00 0.00 0.00 1 1015.0
20260904232631 73 88 2.0 6.0 0.00 0.00 0.00 1 1015.1
20260904231643 73 87 5.0 6.0 0.00 0.00 0.00 1 1015.2
20260904230620 73 50 4.0 9.0 0.00 0.00 0.00 1 1015.2
20260904225635 72 54 7.0 9.0 0.00 0.00 0.00 1 1015.2
20260904224631 72 34 3.0 4.0 0.00 0.00 0.00 1 1015.2
20260904223628 72 100 2.0 5.0 0.00 0.00 0.00 1 1015.2
20260904222623 71 40 5.0 8.0 0.00 0.00 0.00 1 1015.3
20260904221620 71 78 3.0 5.0 0.00 0.00 0.00 1 1015.3
20260904220656 71 58 4.0 5.0 0.00 0.00 0.00 1 1015.3
20260904215633 71 63 4.0 9.0 0.00 0.00 0.00 1 1015.3
20260904214628 71 16 5.0 7.0 0.00 0.00 0.00 1 1015.5
20260904213624 71 34 5.0 7.0 0.00 0.00 0.00 1 1015.4
20260904212641 71 50 4.0 6.0 0.00 0.00 0.00 1 1015.4
20260904211620 70 82 3.0 5.0 0.00 0.00 0.00 1 1015.4
20260904210632 70 53 7.0 11.0 0.00 0.00 0.00 1 1015.2
20260904205636 70 49 5.0 8.0 0.00 0.00 0.00 1 1015.3
20260904204625 69 326 4.0 6.0 0.00 0.00 0.00 1 1015.4
20260904203620 70 20 6.0 9.0 0.00 0.00 0.00 1 1015.4
20260904202616 69 44 3.0 5.0 0.00 0.00 0.00 1 1015.3
20260904201633 69 8 6.0 7.0 0.00 0.00 0.00 1 1015.4
20260904200629 69 59 5.0 6.0 0.00 0.00 0.00 1 1015.5
20260904195645 68 95 4.0 5.0 0.00 0.00 0.00 1 1015.5
20260904194622 68 179 3.0 3.0 0.00 0.00 0.00 1 1015.6
20260904193638 67 360 2.0 5.0 0.00 0.00 0.00 1 1015.6
20260904192634 68 67 4.0 6.0 0.00 0.00 0.00 1 1015.7
20260904191630 67 38 4.0 5.0 0.00 0.00 0.00 1 1015.8
20260904190726 66 50 4.0 6.0 0.00 0.00 0.00 1 1015.8
20260904185622 65 24 3.0 5.0 0.00 0.00 0.00 1 1016.1
20260904184619 64 156 2.0 3.0 0.00 0.00 0.00 1 1016.1
20260904183635 64 185 4.0 5.0 0.00 0.00 0.00 1 1016.3
20260904182631 65 158 4.0 7.0 0.00 0.00 0.00 1 1016.1
20260904181647 65 190 4.0 4.0 0.00 0.00 0.00 1 1016.0
20260904180624 63 37 1.0 3.0 0.00 0.00 0.00 1 1015.8
20260904175620 62 314 2.0 3.0 0.00 0.00 0.00 1 1015.9
20260904174621 63 58 2.0 4.0 0.00 0.00 0.00 1 1015.8
20260904173633 62 68 2.0 3.0 0.00 0.00 0.00 1 1015.8
20260904172628 63 53 5.0 6.0 0.00 0.00 0.00 1 1015.6
20260904171625 62 331 1.0 3.0 0.00 0.00 0.00 1 1015.6
20260904170621 62 12 1.0 3.0 0.00 0.00 0.00 1 1015.7
20260904165618 60 348 3.0 4.0 0.00 0.00 0.00 1 1015.7
20260904164634 59 1 2.0 3.0 0.00 0.00 0.00 1 1015.6
20260904163629 60 336 3.0 4.0 0.00 0.00 0.00 1 1015.6
20260904162645 58 43 2.0 2.0 0.00 0.00 0.00 1 1015.6
20260904161622 58 9 2.0 4.0 0.00 0.00 0.00 1 1015.6
20260904160618 58 337 2.0 4.0 0.00 0.00 0.00 1 1015.4
20260904155636 57 1 3.0 4.0 0.00 0.00 0.00 1 1015.4
20260904154630 57 12 4.0 4.0 0.00 0.00 0.00 1 1015.3
20260904153626 56 7 2.0 3.0 0.00 0.00 0.00 1 1015.3
20260904152622 56 5 3.0 4.0 0.00 0.00 0.00 1 1015.3
20260904151619 55 41 2.0 4.0 0.00 0.00 0.00 1 1015.1
20260904150635 55 322 2.0 4.0 0.00 0.00 0.00 1 1014.9
20260904145631 54 346 2.0 4.0 0.00 0.00 0.00 1 1014.7
20260904144627 53 40 1.0 2.0 0.00 0.00 0.00 1 1014.8
20260904143623 53 359 3.0 4.0 0.00 0.00 0.00 1 1014.6
20260904142640 54 341 2.0 3.0 0.00 0.00 0.00 1 1014.5
20260904141716 53 212 1.0 2.0 0.00 0.00 0.00 1 1014.4
20260904140632 53 279 2.0 2.0 0.00 0.00 0.00 1 1014.2
20260904135628 52 311 2.0 2.0 0.00 0.00 0.00 1 1013.9
20260904134624 51 310 1.0 2.0 0.00 0.00 0.00 1 1013.8
20260904133620 51 283 1.0 2.0 0.00 0.00 0.00 1 1013.7
20260904132617 51 253 1.0 2.0 0.00 0.00 0.00 1 1013.5
20260904131634 51 316 3.0 4.0 0.00 0.00 0.00 1 1013.5
20260904130629 51 292 3.0 4.0 0.00 0.00 0.00 1 1013.5
20260904125624 52 270 2.0 3.0 0.00 0.00 0.00 1 1013.4
20260904124701 52 198 2.0 3.0 0.00 0.00 0.00 1 1013.4
20260904123616 51 251 2.0 3.0 0.00 0.00 0.00 1 1013.4
20260904122633 53 190 4.0 5.0 0.00 0.00 0.00 1 1013.3
20260904121709 52 297 1.0 3.0 0.00 0.00 0.00 1 1013.2
20260904120625 53 39 1.0 2.0 0.00 0.00 0.00 1 1013.1
20260904115622 52 181 1.0 2.0 0.00 0.00 0.00 1 1013.0
20260904114618 51 204 4.0 6.0 0.00 0.00 0.00 1 1013.0
20260904113635 51 281 2.0 3.0 0.00 0.00 0.00 1 1012.7
20260904112631 51 351 2.0 4.0 0.00 0.00 0.00 1 1012.8
20260904111627 50 272 1.0 1.0 0.00 0.00 0.00 1 1012.8
20260904110623 50 327 0.0 2.0 0.00 0.00 0.00 1 1012.7
20260904105632 52 316 3.0 4.0 0.00 0.00 0.00 1 1012.6
20260904104628 50 0.0 1.0 0.00 0.00 0.00 1 1012.5
20260904103624 51 293 3.0 3.0 0.00 0.00 0.00 1 1012.2